Location: Vancouver
(49.2827°N, 123.1207°W)
Time: 22:50:02
(UTC-07:00)

ISS - Pass Details

Date: 26 June 2024
Orbit: 410 x 424 km, 51.6° (Epoch: 12 July)

Event Time Altitude Azimuth Distance (km) Brightness Sun altitude
Exits shadow 03:17:22 14° 165° (SSE) 1,249 -1.8 -12.5°
Maximum altitude 03:18:35 17° 139° (SE) 1,137 -1.8 -12.4°
Drops below altitude 10° 03:20:49 10° 97° (E) 1,491 -0.7 -12.2°
Sets 03:23:25 0° 76° (ENE) 2,363 0.8 -12.0°
